Location: Peterborough
(44.3091°N, 78.3197°W)
Time: 23:29:35
(UTC-04:00)

Vanguard 1 - Pass Details

Date: 15 April 2024
Orbit: 652 x 3825 km, 34.2° (Epoch: 29 May)

Event Time Altitude Azimuth Distance (km) Brightness Sun altitude
Rises 03:43:01 0° 192° (SSW) 7,944 - -26.0°
Exits shadow 03:49:24 - 182° (S) 7,031 14.0 -25.2°
Reaches altitude 10° 03:51:35 10° 177° (S) 6,729 13.9 -25.0°
Maximum altitude 04:03:26 18° 143° (SE) 5,416 13.7 -23.5°
Drops below altitude 10° 04:12:53 10° 108° (ESE) 5,293 14.2 -22.2°
Sets 04:18:08 0° 91° (E) 5,754 14.7 -21.5°
